#timestamp,LO_Frequency,Hit 
1502935215.8,286047006.9,P
1502935235.6,286047000.0,N
1502935255.4,286047001.4,N
1502935275.3,286047001.4,N
1502935295.1,286047001.9,N
1502935315.8,286047002.5,N
1502935335.7,286047001.6,N
1502935355.5,286047004.1,N
1502935375.3,286047004.4,N
1502935395.2,286047002.0,N
1502935415.9,286047003.5,N
1502935435.7,286047005.6,P
1502935455.6,286047002.4,N
1502935475.4,286047003.3,N
1502935495.2,286047002.4,N
1502935515.1,286047002.6,N
1502935516.0,286047002.6,N
1502935535.8,286047002.5,N
1502935555.6,286047002.2,N
1502935575.5,286047004.4,P
1502935595.3,286047000.3,N
1502935615.1,286047000.5,N
1502935635.9,286047000.9,N
1502935655.7,286046999.7,N
1502935675.5,286046999.7,N
1502935695.4,286046999.9,N
1502935715.2,286047001.7,N
1502935735.0,286047002.3,N
1502935735.9,286047002.3,N
1502935755.7,286047001.8,N
1502935775.6,286047002.5,N
1502935795.4,286047001.7,N
1502935815.2,286047004.3,P
1502935835.1,286047000.6,N
1502935836.0,286047000.6,N
1502935855.8,286047001.2,N
1502935875.6,286046998.1,N
1502935895.5,286046999.2,N
1502935915.3,286046998.3,N
1502935935.1,286047001.0,N
1502935955.9,286047004.0,N
1502935975.7,286047004.0,N
1502935995.5,286047003.9,N
1502936015.4,286047003.7,N
1502936035.2,286047001.5,N
1502936055.0,286047001.4,N
1502936055.9,286047001.4,N
1502936075.8,286047003.5,N
1502936095.6,286047001.7,N
1502936115.4,286047002.2,N
1502936135.3,286047003.3,N
1502936155.1,286047004.1,N
1502936156.0,286047004.1,N
1502936175.8,286047003.0,N
1502936195.7,286047004.7,N
1502936215.5,286047005.3,N
1502936235.3,286047005.7,N
1502936255.1,286047003.3,N
1502936275.9,286047005.2,N
1502936295.7,286047005.3,N
1502936315.5,286047006.0,N
1502936335.4,286047003.1,N
1502936355.2,286047005.6,N
1502936375.0,286047005.5,N
1502936375.9,286047005.5,N
1502936395.8,286047007.5,P
1502936415.6,286047005.3,N
1502936435.4,286047003.2,N
1502936455.3,286047003.0,N
1502936475.1,286047005.6,P
1502936495.8,286047002.2,P
1502936515.7,286047005.1,P
1502936535.5,286047003.4,N
1502936555.3,286047004.0,P
1502936575.2,286047002.3,P
1502936595.0,286047000.8,N
1502936595.9,286047000.8,N
1502936615.7,286046998.5,N
1502936635.6,286046999.4,N
1502936655.4,286046997.2,N
1502936675.2,286046998.8,N
1502936695.1,286046997.0,N
1502936696.0,286046997.0,N
1502936715.8,286046997.5,N
1502936735.6,286046995.7,N
1502936755.5,286046998.4,N
1502936775.3,286047002.1,N
1502936795.1,286046999.7,N
1502936815.9,286047000.3,N
1502936835.7,286047000.8,N
1502936855.5,286047002.2,N
1502936875.4,286047002.4,N
1502936895.2,286047002.3,N
1502936915.0,286047002.8,N
1502936915.9,286047002.8,N
1502936935.7,286047003.0,N
1502936955.6,286047002.0,N
1502936975.4,286047000.4,N
1502936995.2,286046997.1,N
1502937015.1,286046999.4,N
1502937016.0,286046999.4,N
1502937035.8,286047002.6,N
1502937055.6,286047004.4,N
1502937075.5,286047005.3,N
1502937095.3,286047005.0,N
1502937115.1,286047003.6,N
1502937135.9,286047004.2,N
1502937155.7,286047001.9,N
1502937175.5,286047000.1,N
1502937195.4,286046999.9,N
1502937215.2,286047002.3,N
1502937235.0,286047001.4,N
1502937235.9,286047001.4,N
1502937255.8,286047005.1,N
1502937275.6,286047005.9,N
1502937295.4,286047002.1,N
1502937315.2,286047000.0,N
1502937335.1,286047005.8,N
1502937336.0,286047005.8,N
1502937355.8,286047003.6,N
1502937375.6,286047002.1,N
1502937395.5,286047000.5,N
1502937415.3,286047003.9,N
1502937435.1,286047003.4,N
1502937455.9,286047002.9,N
1502937475.7,286047003.0,N
1502937495.5,286047004.4,N
1502937515.4,286047001.8,N
1502937535.2,286047002.4,N
1502937555.0,286047003.2,N
1502937555.9,286047003.2,N
1502937575.8,286047002.1,N
1502937595.6,286047003.3,N
1502937615.4,286047001.6,N
1502937635.3,286047001.4,N
1502937655.1,286047001.3,N
1502937656.0,286047001.3,N
1502937675.8,286047005.6,P
1502937695.7,286047001.5,N
1502937715.5,286047001.3,N
1502937735.3,286047001.9,N
1502937755.2,286047000.8,N
1502937775.9,286047003.6,N
1502937795.7,286047002.3,N
1502937815.5,286047002.1,N
1502937835.4,286046999.9,N
1502937855.2,286047000.9,N
1502937875.0,286046998.7,N
1502937875.9,286046998.7,N
1502937895.8,286046999.2,N
1502937915.6,286046999.0,N
1502937935.4,286047000.8,N
1502937955.3,286047000.9,N
1502937975.1,286047003.9,N
1502937976.0,286047003.9,N
1502937995.8,286047005.5,N
1502938015.7,286047006.2,P
1502938035.5,286047005.6,N
1502938055.3,286047003.1,N
1502938075.2,286047001.5,N
1502938095.9,286047000.1,N
1502938115.7,286047002.4,N
1502938135.6,286047004.4,N
1502938155.4,286047001.6,N
1502938175.2,286047003.2,N
1502938195.1,286047001.8,N
1502938196.0,286047001.8,N
1502938215.8,286047005.8,P
1502938235.6,286047002.4,N
1502938255.5,286047001.0,N
1502938275.3,286046999.5,N
1502938295.1,286046998.9,N
1502938315.9,286046999.2,N
1502938335.7,286046996.9,N
1502938355.5,286047001.2,N
1502938375.3,286047000.0,N
1502938395.2,286046997.4,N
1502938415.0,286046996.6,N
1502938415.9,286046996.6,N
1502938435.7,286046999.2,N
1502938455.6,286047001.2,N
1502938475.4,286046996.5,N
1502938495.2,286047000.8,N
1502938515.1,286047002.0,N
1502938516.0,286047002.0,N
1502938535.8,286047002.2,N
1502938555.6,286047001.6,N
1502938575.5,286047002.0,N
1502938595.3,286047001.4,N
1502938615.1,286047001.5,N
1502938635.9,286047000.0,N
1502938655.7,286046999.8,N
1502938675.5,286047000.1,N
1502938695.3,286047001.7,N
1502938715.2,286047003.6,N
1502938735.0,286047003.6,N
1502938735.9,286047003.6,N
1502938755.7,286047001.6,N
1502938775.6,286047002.5,N
1502938795.4,286047005.5,N
